Вернуться в каталог

WESTFORD NEEDLES

LostPO
NORAD 2933·DEBRIS·🇺🇸 United States

Запущен May 9, 1963 с Vandenberg Space Force Base

Loading…

Ближайшие Пролёты (ближайшие 24 часа)

TLE

УстаревшееSource: Space-Track

Эпоха: Jul 4, 2009, 01:16 UTC

1  2933U 63014AR  09185.05296343 +.00000004 +00000-0 +10000-3 0  9994
2  2933 087.3250 040.7463 0383424 148.8229 216.4259 08.68112535697871

Отслеживайте WESTFORD NEEDLES в реальном времени с AllMySat

Download on the App Store